Weather History for Tampa Executive, FL

Change the Weather History Date:

Monday, November 12, 2012

  Actual Average (KTPA) Record (KTPA)
Temperature  
Mean Temperature 24 °F 70 °F  
Max Temperature 84 °F 79 °F 88 °F (2002)
Min Temperature -36 °F 61 °F 38 °F (1894)
Degree Days  
Heating Degree Days 41 1  
Month to date heating degree days 10  
Since 1 July heating degree days 14  
Cooling Degree Days 0 6  
Month to date cooling degree days 81  
Year to date cooling degree days 3447  
Moisture  
Dew Point 50 °F    
Average Humidity 77    
Maximum Humidity 100    
Minimum Humidity 42    
Precipitation  
Precipitation 0.00 in 0.05 in 0.89 in (1904)
Month to date precipitation 0.62  
Year to date precipitation 42.90  
Sea Level Pressure  
Sea Level Pressure 30.21 in    
Wind  
Wind Speed 2 mph (East)    
Max Wind Speed 10 mph    
Max Gust Speed -    
Visibility 8 miles    
Events Fog    
T = Trace of Precipitation, MM = Missing Value Source: NWS Daily Summary

Daily Weather History Graph

Daily Weather History Graph

Search for Another Location

Airport:

Trip Planner

Search our weather history database for the weather conditions in past years. The results will help you decide how hot, cold, wet, or windy it might be!

Date:

Astronomy

Nov. 12, 2012 Rise Set
Actual Time 6:49 AM EST 5:37 PM EST
Civil Twilight 6:24 AM EST 6:02 PM EST
Nautical Twilight 5:56 AM EST 6:30 PM EST
Astronomical Twilight 5:28 AM EST 6:58 PM EST
Moon 5:17 AM EST (11/12) 4:39 PM EST (11/12)
Length of Visible Light 11h 38m
Length of Day
10h 48m
Waning Crescent, 2% of the Moon is Illuminated
Nov 12
Waning Crescent
Nov 13
New
Nov 20
First Quarter
Nov 28
Full
Dec 6
Last Quarter

Hourly Weather History & Observations

Time (EST) Temp. Windchill Dew Point Humidity Pressure Visibility Wind Dir Wind Speed Gust Speed Precip Events Conditions
12:15 AM 57.2 °F - 53.6 °F 88% 30.24 in 10.0 mi East 3.5 mph - N/A   Scattered Clouds
12:35 AM 57.2 °F - 53.6 °F 88% 30.24 in 10.0 mi Calm Calm - N/A   Clear
12:55 AM 57.2 °F - 53.6 °F 88% 30.23 in 10.0 mi Calm Calm - N/A   Scattered Clouds
1:15 AM 55.4 °F - 53.6 °F 94% 30.23 in 10.0 mi Calm Calm - N/A   Scattered Clouds
1:35 AM 55.4 °F - 53.6 °F 94% 30.23 in 7.0 mi Calm Calm - N/A   Clear
1:55 AM 55.4 °F - 51.8 °F 88% 30.24 in 7.0 mi Calm Calm - N/A   Clear
2:15 AM 55.4 °F - 53.6 °F 94% 30.23 in 5.0 mi Calm Calm - N/A   Clear
2:35 AM 53.6 °F - 51.8 °F 94% 30.22 in 4.0 mi Calm Calm - N/A   Clear
2:55 AM 53.6 °F - 51.8 °F 94% 30.22 in 5.0 mi Calm Calm - N/A   Clear
3:15 AM 53.6 °F - 51.8 °F 94% 30.22 in 5.0 mi Calm Calm - N/A   Clear
3:35 AM 51.8 °F - 51.8 °F 100% 30.22 in 5.0 mi Calm Calm - N/A   Mostly Cloudy
3:55 AM 51.8 °F - 50.0 °F 94% 30.21 in 5.0 mi Calm Calm - N/A   Overcast
4:35 AM 42.8 °F - 42.8 °F 100% 30.21 in 3.0 mi Calm Calm - N/A   Mist
4:55 AM 37.4 °F - 37.4 °F 100% 30.21 in 1.5 mi Calm Calm - N/A   Scattered Clouds
5:15 AM 32.0 °F - 32.0 °F 100% 30.21 in 2.0 mi Calm Calm - N/A   Mist
5:35 AM 30.2 °F - 30.2 °F 100% 30.21 in 0.8 mi Calm Calm - N/A   Mostly Cloudy
5:55 AM 28.4 °F - 28.4 °F 100% 30.22 in 1.2 mi Calm Calm - N/A   Scattered Clouds
6:15 AM 24.8 °F - 24.8 °F 100% 30.22 in 0.5 mi Calm Calm - N/A Fog Light Freezing Fog
6:35 AM 26.6 °F - 26.6 °F 100% 30.23 in 1.0 mi Calm Calm - N/A   Overcast
7:15 AM 19.4 °F - 19.4 °F 100% 30.23 in 2.5 mi Calm Calm - N/A   Scattered Clouds
7:35 AM 10.4 °F - 10.4 °F 100% 30.24 in 4.0 mi Calm Calm - N/A   Scattered Clouds
7:55 AM -34.6 °F - -34.6 °F 100% 30.24 in 5.0 mi Calm Calm - N/A   Mostly Cloudy
8:15 AM -36.4 °F - -36.4 °F 100% 30.24 in 7.0 mi Calm Calm - N/A   Mostly Cloudy
8:35 AM 23.0 °F 18.4 °F 23.0 °F 100% 30.25 in 10.0 mi ENE 3.5 mph - N/A   Mostly Cloudy
8:55 AM 32.0 °F - 32.0 °F 100% 30.25 in 10.0 mi Calm Calm - N/A   Mostly Cloudy
9:15 AM 59.0 °F - 55.4 °F 88% 30.26 in 10.0 mi ENE 4.6 mph - N/A   Scattered Clouds
9:55 AM 75.2 °F - 64.4 °F 69% 30.26 in 10.0 mi SSE 4.6 mph - N/A   Clear
10:15 AM 77.0 °F - 64.4 °F 65% 30.26 in 10.0 mi ESE 6.9 mph - N/A   Clear
10:35 AM 78.8 °F - 62.6 °F 57% 30.25 in 10.0 mi SE 8.1 mph - N/A   Scattered Clouds
10:55 AM 80.6 °F - 62.6 °F 54% 30.25 in 10.0 mi ESE 8.1 mph - N/A   Scattered Clouds
11:15 AM 80.6 °F - 62.6 °F 54% 30.25 in 10.0 mi East 8.1 mph - N/A   Scattered Clouds
11:55 AM 82.4 °F - 62.6 °F 51% 30.23 in 10.0 mi East 10.4 mph - N/A   Mostly Cloudy
12:15 PM 82.4 °F - 60.8 °F 48% 30.22 in 10.0 mi East 9.2 mph - N/A   Mostly Cloudy
12:55 PM 82.4 °F - 59.0 °F 45% 30.20 in 10.0 mi SE 4.6 mph - N/A   Scattered Clouds
1:15 PM 84.2 °F - 59.0 °F 42% 30.19 in 10.0 mi Calm Calm - N/A   Scattered Clouds
1:55 PM 82.4 °F - 59.0 °F 45% 30.18 in 10.0 mi East 4.6 mph - N/A   Mostly Cloudy
2:15 PM 82.4 °F - 59.0 °F 45% 30.17 in 10.0 mi East 5.8 mph - N/A   Scattered Clouds
2:35 PM 82.4 °F - 60.8 °F 48% 30.17 in 10.0 mi East 4.6 mph - N/A   Mostly Cloudy
2:55 PM 82.4 °F - 60.8 °F 48% 30.17 in 10.0 mi NE 5.8 mph - N/A   Mostly Cloudy
3:15 PM 80.6 °F - 60.8 °F 51% 30.17 in 10.0 mi East 6.9 mph - N/A   Scattered Clouds
3:35 PM 82.4 °F - 60.8 °F 48% 30.17 in 10.0 mi East 5.8 mph - N/A   Clear
3:55 PM 82.4 °F - 60.8 °F 48% 30.17 in 10.0 mi ENE 4.6 mph - N/A   Clear
4:15 PM 82.4 °F - 59.0 °F 45% 30.16 in 10.0 mi East 5.8 mph - N/A   Clear
4:55 PM 78.8 °F - 60.8 °F 54% 30.16 in 10.0 mi North - - N/A   Clear
5:15 PM 77.0 °F - 60.8 °F 57% 30.16 in 10.0 mi Calm Calm - N/A   Clear
5:35 PM 75.2 °F - 60.8 °F 61% 30.16 in 10.0 mi Calm Calm - N/A   Clear
5:55 PM 71.6 °F - 60.8 °F 69% 30.17 in 10.0 mi Calm Calm - N/A   Clear
6:15 PM 71.6 °F - 62.6 °F 73% 30.17 in 10.0 mi Calm Calm - N/A   Mostly Cloudy
6:35 PM 73.4 °F - 62.6 °F 69% 30.17 in 10.0 mi Calm Calm - N/A   Overcast
6:55 PM 73.4 °F - 62.6 °F 69% 30.18 in 10.0 mi East 3.5 mph - N/A   Mostly Cloudy
7:15 PM 73.4 °F - 62.6 °F 69% 30.19 in 10.0 mi East 3.5 mph - N/A   Scattered Clouds
7:35 PM 71.6 °F - 62.6 °F 73% 30.19 in 10.0 mi Calm Calm - N/A   Clear
7:55 PM 71.6 °F - 62.6 °F 73% 30.19 in 10.0 mi East 3.5 mph - N/A   Clear
8:55 PM 68.0 °F - 60.8 °F 78% 30.20 in 10.0 mi Calm Calm - N/A   Scattered Clouds
10:15 PM 62.6 °F - 59.0 °F 88% 30.20 in 10.0 mi Calm Calm - N/A   Overcast
10:55 PM 62.6 °F - 59.0 °F 88% 30.20 in 10.0 mi Calm Calm - N/A   Overcast
11:15 PM 64.4 °F - 59.0 °F 83% 30.19 in 10.0 mi ESE 3.5 mph - N/A   Mostly Cloudy
11:35 PM 64.4 °F - 59.0 °F 83% 30.19 in 10.0 mi Calm Calm - N/A   Scattered Clouds